Location: Mentone
(34.5413°N, 85.5351°W)
Time: 08:57:50
(UTC-05:00)

Vanguard 2 Rocket - Visible Passes

Search period start: 28 June 2017 00:00
Search period end: 08 July 2017 00:00
Orbit: 554 x 3328 km, 32.9° (Epoch: 27 June)

Date Brightness Start Highest point End Pass type
(mag) Time Alt. Az. Time Alt. Az. Time Alt. Az.
28 Jun 8.8 00:23:51 10° W 00:26:31 21° W 00:26:31 21° W visible
28 Jun 8.3 21:05:30 10° SW 21:17:51 46° SSE 21:25:00 10° E visible
28 Jun 7.2 23:22:42 10° WSW 23:31:09 67° SW 23:31:09 67° SW visible
29 Jun 7.5 22:21:07 10° WSW 22:32:24 68° SSE 22:35:37 34° E visible
30 Jun 8.7 00:38:32 10° W 00:41:29 22° W 00:41:29 22° W visible
30 Jun 8.0 21:19:17 10° WSW 21:32:31 61° SSE 21:39:52 10° E visible
30 Jun 7.2 23:37:18 10° W 23:45:49 69° WSW 23:45:49 69° WSW visible
01 Jul 8.6 20:17:26 10° SW 20:32:19 53° SSE 20:40:54 10° E visible
01 Jul 7.5 22:35:35 10° WSW 22:47:04 78° S 22:50:01 39° E visible
02 Jul 8.9 00:53:13 10° W 00:55:50 20° W 00:55:50 20° W visible
02 Jul 8.0 21:33:30 10° WSW 21:47:11 73° S 21:54:07 13° E visible
02 Jul 7.5 23:51:59 10° W 23:59:57 59° WSW 23:59:57 59° WSW visible
03 Jul 8.5 20:31:17 10° WSW 20:46:56 66° SSE 20:55:42 10° E visible
03 Jul 7.4 22:50:13 10° W 23:01:45 81° S 23:03:59 50° ESE visible
04 Jul 9.1 01:07:58 10° W 01:09:48 17° W 01:09:48 17° W visible
04 Jul 8.0 21:47:59 10° W 22:01:50 81° S 22:07:57 18° E visible
05 Jul 7.9 00:06:40 10° W 00:13:45 46° WSW 00:13:45 46° WSW visible
05 Jul 8.4 20:45:32 10° WSW 21:01:34 76° S 21:10:26 10° E visible
05 Jul 7.4 23:04:53 10° W 23:16:25 77° S 23:17:40 64° SE visible
06 Jul 9.5 01:22:51 10° W 01:23:29 12° W 01:23:29 12° W visible
06 Jul 8.0 22:02:37 10° W 22:16:32 82° S 22:21:32 27° E visible
07 Jul 8.4 00:21:23 10° W 00:27:21 34° WSW 00:27:21 34° WSW visible
07 Jul 8.4 21:00:02 10° W 21:16:13 82° S 21:25:08 10° E visible
07 Jul 7.5 23:19:33 10° W 23:31:00 67° SSW 23:31:11 67° S visible
